Location: Crab Orchard
(37.7292°N, 88.8042°W)
Time: 11:19:09
(UTC+00:00)

Meteor 1-18 Rocket - Pass Details

Date: 08 December 2019
Orbit: 836 x 909 km, 81.2° (Epoch: 21 January)

Event Time Altitude Azimuth Distance (km) Brightness Sun altitude
Rises 12:08:29 0° 345° (NNW) 3,395 7.0 -9.7°
Reaches altitude 10° 12:10:57 10° 340° (NNW) 2,456 6.2 -9.2°
Maximum altitude 12:16:18 51° 266° (W) 1,052 4.4 -8.2°
Drops below altitude 10° 12:21:38 10° 192° (SSW) 2,455 6.8 -7.3°
Sets 12:24:06 0° 187° (S) 3,393 7.6 -6.8°
